Year,Month,Day,Hour,Minute,Value (Times are PST for temperature in C)
2011,08,20,00,00,12.50
2011,08,20,00,01,12.40
2011,08,20,00,02,12.40
2011,08,20,00,03,12.40
2011,08,20,00,04,12.30
2011,08,20,00,05,12.30
2011,08,20,00,06,12.30
2011,08,20,00,07,12.30
2011,08,20,00,08,12.30
2011,08,20,00,09,12.30
2011,08,20,00,10,12.30
2011,08,20,00,11,12.20
2011,08,20,00,12,12.20
2011,08,20,00,13,12.20
2011,08,20,00,14,12.20
2011,08,20,00,15,12.10
2011,08,20,00,16,12.10
2011,08,20,00,17,12.10
2011,08,20,00,18,12.00
2011,08,20,00,19,12.00
2011,08,20,00,20,12.00
2011,08,20,00,21,12.00
2011,08,20,00,22,11.90
2011,08,20,00,23,11.90
2011,08,20,00,24,11.90
2011,08,20,00,25,11.90
2011,08,20,00,26,11.90
2011,08,20,00,27,11.90
2011,08,20,00,28,11.90
2011,08,20,00,29,11.90
2011,08,20,00,30,11.90
2011,08,20,00,31,11.90
2011,08,20,00,32,11.90
2011,08,20,00,33,11.80
2011,08,20,00,34,11.80
2011,08,20,00,35,11.80
2011,08,20,00,36,11.80
2011,08,20,00,37,11.80
2011,08,20,00,38,11.80
2011,08,20,00,39,11.80
2011,08,20,00,40,11.80
2011,08,20,00,41,11.80
2011,08,20,00,42,11.80
2011,08,20,00,43,11.80
2011,08,20,00,44,11.80
2011,08,20,00,45,11.80
2011,08,20,00,46,11.80
2011,08,20,00,47,11.80
2011,08,20,00,48,11.80
2011,08,20,00,49,11.80
2011,08,20,00,50,11.80
2011,08,20,00,51,11.80
2011,08,20,00,52,11.80
2011,08,20,00,53,11.80
2011,08,20,00,54,11.80
2011,08,20,00,55,11.80
2011,08,20,00,56,11.80
2011,08,20,00,57,11.80
2011,08,20,00,58,11.80
2011,08,20,00,59,11.80
2011,08,20,01,00,11.80
2011,08,20,01,01,11.80
2011,08,20,01,02,11.80
2011,08,20,01,03,11.80
2011,08,20,01,04,11.80
2011,08,20,01,05,11.80
2011,08,20,01,06,11.80
2011,08,20,01,07,11.70
2011,08,20,01,08,11.70
2011,08,20,01,09,11.70
2011,08,20,01,10,11.70
2011,08,20,01,11,11.70
2011,08,20,01,12,11.70
2011,08,20,01,13,11.70
2011,08,20,01,14,11.70
2011,08,20,01,15,11.70
2011,08,20,01,16,11.70
2011,08,20,01,17,11.70
2011,08,20,01,18,11.70
2011,08,20,01,19,11.70
2011,08,20,01,20,11.60
2011,08,20,01,21,11.60
2011,08,20,01,22,11.60
2011,08,20,01,23,11.60
2011,08,20,01,24,11.60
2011,08,20,01,25,11.60
2011,08,20,01,26,11.60
2011,08,20,01,27,11.60
2011,08,20,01,28,11.60
2011,08,20,01,29,11.60
2011,08,20,01,30,11.60
2011,08,20,01,31,11.50
2011,08,20,01,32,11.40
2011,08,20,01,33,11.40
2011,08,20,01,34,11.40
2011,08,20,01,35,11.40
2011,08,20,01,36,11.40
2011,08,20,01,37,11.40
2011,08,20,01,38,11.40
2011,08,20,01,39,11.40
2011,08,20,01,40,11.40
2011,08,20,01,41,11.40
2011,08,20,01,42,11.40
2011,08,20,01,43,11.40
2011,08,20,01,44,11.40
2011,08,20,01,45,11.40
2011,08,20,01,46,11.40
2011,08,20,01,47,11.40
2011,08,20,01,48,11.40
2011,08,20,01,49,11.40
2011,08,20,01,50,11.30
2011,08,20,01,51,11.30
2011,08,20,01,52,11.30
2011,08,20,01,53,11.30
2011,08,20,01,54,11.20
2011,08,20,01,55,11.20
2011,08,20,01,56,11.20
2011,08,20,01,57,11.20
2011,08,20,01,58,11.20
2011,08,20,01,59,11.20
2011,08,20,02,00,11.20
2011,08,20,02,01,11.20
2011,08,20,02,02,11.20
2011,08,20,02,03,11.10
2011,08,20,02,04,11.10
2011,08,20,02,05,11.10
2011,08,20,02,06,11.10
2011,08,20,02,07,11.10
2011,08,20,02,08,11.10
2011,08,20,02,09,11.10
2011,08,20,02,10,11.10
2011,08,20,02,11,11.10
2011,08,20,02,12,11.10
2011,08,20,02,13,11.10
2011,08,20,02,14,11.10
2011,08,20,02,15,11.10
2011,08,20,02,16,11.10
2011,08,20,02,17,11.10
2011,08,20,02,18,11.10
2011,08,20,02,19,11.10
2011,08,20,02,20,11.10
2011,08,20,02,21,11.00
2011,08,20,02,22,11.00
2011,08,20,02,23,10.90
2011,08,20,02,24,10.90
2011,08,20,02,25,10.90
2011,08,20,02,26,10.90
2011,08,20,02,27,10.90
2011,08,20,02,28,10.90
2011,08,20,02,29,10.90
2011,08,20,02,30,10.90
2011,08,20,02,31,10.90
2011,08,20,02,32,10.90
2011,08,20,02,33,10.90
2011,08,20,02,34,10.90
2011,08,20,02,35,10.90
2011,08,20,02,36,10.90
2011,08,20,02,37,10.90
2011,08,20,02,38,10.90
2011,08,20,02,39,10.90
2011,08,20,02,40,10.90
2011,08,20,02,41,10.90
2011,08,20,02,42,10.90
2011,08,20,02,43,10.90
2011,08,20,02,44,10.90
2011,08,20,02,45,10.90
2011,08,20,02,46,10.80
2011,08,20,02,47,10.80
2011,08,20,02,48,10.80
2011,08,20,02,49,10.80
2011,08,20,02,50,10.80
2011,08,20,02,51,10.70
2011,08,20,02,52,10.70
2011,08,20,02,53,10.70
2011,08,20,02,54,10.60
2011,08,20,02,55,10.60
2011,08,20,02,56,10.60
2011,08,20,02,57,10.60
2011,08,20,02,58,10.50
2011,08,20,02,59,10.40
2011,08,20,03,00,10.40
2011,08,20,03,01,10.40
2011,08,20,03,02,10.40
2011,08,20,03,03,10.40
2011,08,20,03,04,10.40
2011,08,20,03,05,10.40
2011,08,20,03,06,10.40
2011,08,20,03,07,10.40
2011,08,20,03,08,10.30
2011,08,20,03,09,10.30
2011,08,20,03,10,10.30
2011,08,20,03,11,10.30
2011,08,20,03,12,10.30
2011,08,20,03,13,10.30
2011,08,20,03,14,10.30
2011,08,20,03,15,10.30
2011,08,20,03,16,10.30
2011,08,20,03,17,10.30
2011,08,20,03,18,10.30
2011,08,20,03,19,10.30
2011,08,20,03,20,10.30
2011,08,20,03,21,10.30
2011,08,20,03,22,10.30
2011,08,20,03,23,10.30
2011,08,20,03,24,10.30
2011,08,20,03,25,10.30
2011,08,20,03,26,10.20
2011,08,20,03,27,10.20
2011,08,20,03,28,10.20
2011,08,20,03,29,10.20
2011,08,20,03,30,10.20
2011,08,20,03,31,10.20
2011,08,20,03,32,10.20
2011,08,20,03,33,10.20
2011,08,20,03,34,10.20
2011,08,20,03,35,10.20
2011,08,20,03,36,10.20
2011,08,20,03,37,10.20
2011,08,20,03,38,10.20
2011,08,20,03,39,10.20
2011,08,20,03,40,10.20
2011,08,20,03,41,10.10
2011,08,20,03,42,10.10
2011,08,20,03,43,10.10
2011,08,20,03,44,10.10
2011,08,20,03,45,10.10
2011,08,20,03,46,10.10
2011,08,20,03,47,10.10
2011,08,20,03,48,10.10
2011,08,20,03,49,10.10
2011,08,20,03,50,10.10
2011,08,20,03,51,10.10
2011,08,20,03,52,10.10
2011,08,20,03,53,10.10
2011,08,20,03,54,10.10
2011,08,20,03,55,10.10
2011,08,20,03,56,10.10
2011,08,20,03,57,10.20
2011,08,20,03,58,10.20
2011,08,20,03,59,10.20
2011,08,20,04,00,10.20
2011,08,20,04,01,10.20
2011,08,20,04,02,10.20
2011,08,20,04,03,10.10
2011,08,20,04,04,10.10
2011,08,20,04,05,10.10
2011,08,20,04,06,10.10
2011,08,20,04,07,10.10
2011,08,20,04,08,10.10
2011,08,20,04,09,10.10
2011,08,20,04,10,10.10
2011,08,20,04,11,10.10
2011,08,20,04,12,10.10
2011,08,20,04,13,10.10
2011,08,20,04,14,10.10
2011,08,20,04,15,10.10
2011,08,20,04,16,10.10
2011,08,20,04,17,10.00
2011,08,20,04,18,9.90
2011,08,20,04,19,9.90
2011,08,20,04,20,9.90
2011,08,20,04,21,10.00
2011,08,20,04,22,10.10
2011,08,20,04,23,10.10
2011,08,20,04,24,10.10
2011,08,20,04,25,9.90
2011,08,20,04,26,9.90
2011,08,20,04,27,9.90
2011,08,20,04,28,9.90
2011,08,20,04,29,9.90
2011,08,20,04,30,9.90
2011,08,20,04,31,9.90
2011,08,20,04,32,9.90
2011,08,20,04,33,9.90
2011,08,20,04,34,9.90
2011,08,20,04,35,9.90
2011,08,20,04,36,9.90
2011,08,20,04,37,9.90
2011,08,20,04,38,9.90
2011,08,20,04,39,9.90
2011,08,20,04,40,9.90
2011,08,20,04,41,9.90
2011,08,20,04,42,9.90
2011,08,20,04,43,9.90
2011,08,20,04,44,10.10
2011,08,20,04,45,10.10
2011,08,20,04,46,10.10
2011,08,20,04,47,9.90
2011,08,20,04,48,9.90
2011,08,20,04,49,9.90
2011,08,20,04,50,9.90
2011,08,20,04,51,9.90
2011,08,20,04,52,9.90
2011,08,20,04,53,9.90
2011,08,20,04,54,9.90
2011,08,20,04,55,9.90
2011,08,20,04,56,9.90
2011,08,20,04,57,9.80
2011,08,20,04,58,9.80
2011,08,20,04,59,9.80
2011,08,20,05,00,9.80
2011,08,20,05,01,9.70
2011,08,20,05,02,9.70
2011,08,20,05,03,9.70
2011,08,20,05,04,9.70
2011,08,20,05,05,9.70
2011,08,20,05,06,9.70
2011,08,20,05,07,9.70
2011,08,20,05,08,9.70
2011,08,20,05,09,9.70
2011,08,20,05,10,9.70
2011,08,20,05,11,9.70
2011,08,20,05,12,9.70
2011,08,20,05,13,9.70
2011,08,20,05,14,9.70
2011,08,20,05,15,9.70
2011,08,20,05,16,9.70
2011,08,20,05,17,9.70
2011,08,20,05,18,9.70
2011,08,20,05,19,9.70
2011,08,20,05,20,9.70
2011,08,20,05,21,9.70
2011,08,20,05,22,9.70
2011,08,20,05,23,9.70
2011,08,20,05,24,9.70
2011,08,20,05,25,9.70
2011,08,20,05,26,9.70
2011,08,20,05,27,9.70
2011,08,20,05,28,9.70
2011,08,20,05,29,9.70
2011,08,20,05,30,9.70
2011,08,20,05,31,9.70
2011,08,20,05,32,9.70
2011,08,20,05,33,9.70
2011,08,20,05,34,9.70
2011,08,20,05,35,9.70
2011,08,20,05,36,9.70
2011,08,20,05,37,9.70
2011,08,20,05,38,9.70
2011,08,20,05,39,9.60
2011,08,20,05,40,9.60
2011,08,20,05,41,9.60
2011,08,20,05,42,9.60
2011,08,20,05,43,9.60
2011,08,20,05,44,9.60
2011,08,20,05,45,9.50
2011,08,20,05,46,9.50
2011,08,20,05,47,9.50
2011,08,20,05,48,9.50
2011,08,20,05,49,9.50
2011,08,20,05,50,9.50
2011,08,20,05,51,9.50
2011,08,20,05,52,9.50
2011,08,20,05,53,9.50
2011,08,20,05,54,9.50
2011,08,20,05,55,9.50
2011,08,20,05,56,9.60
2011,08,20,05,57,9.60
2011,08,20,05,58,9.60
2011,08,20,05,59,9.60
2011,08,20,06,00,9.60
2011,08,20,06,01,9.60
2011,08,20,06,02,9.50
2011,08,20,06,03,9.50
2011,08,20,06,04,9.50
2011,08,20,06,05,9.50
2011,08,20,06,06,9.50
2011,08,20,06,07,9.50
2011,08,20,06,08,9.50
2011,08,20,06,09,9.50
2011,08,20,06,10,9.50
2011,08,20,06,11,9.50
2011,08,20,06,12,9.50
2011,08,20,06,13,9.50
2011,08,20,06,14,9.40
2011,08,20,06,15,9.40
2011,08,20,06,16,9.40
2011,08,20,06,17,9.40
2011,08,20,06,18,9.40
2011,08,20,06,19,9.40
2011,08,20,06,20,9.40
2011,08,20,06,21,9.40
2011,08,20,06,22,9.40
2011,08,20,06,23,9.40
2011,08,20,06,24,9.40
2011,08,20,06,25,9.50
2011,08,20,06,26,9.50
2011,08,20,06,27,9.50
2011,08,20,06,28,9.50
2011,08,20,06,29,9.50
2011,08,20,06,30,9.50
2011,08,20,06,31,9.50
2011,08,20,06,32,9.50
2011,08,20,06,33,9.50
2011,08,20,06,34,9.60
2011,08,20,06,35,9.60
2011,08,20,06,36,9.60
2011,08,20,06,37,9.60
2011,08,20,06,38,9.60
2011,08,20,06,39,9.60
2011,08,20,06,40,9.60
2011,08,20,06,41,9.70
2011,08,20,06,42,9.70
2011,08,20,06,43,9.70
2011,08,20,06,44,9.70
2011,08,20,06,45,9.70
2011,08,20,06,46,9.70
2011,08,20,06,47,9.70
2011,08,20,06,48,9.70
2011,08,20,06,49,9.70
2011,08,20,06,50,9.70
2011,08,20,06,51,9.70
2011,08,20,06,52,9.70
2011,08,20,06,53,9.70
2011,08,20,06,54,9.70
2011,08,20,06,55,9.70
2011,08,20,06,56,9.70
2011,08,20,06,57,9.80
2011,08,20,06,58,9.80
2011,08,20,06,59,9.80
2011,08,20,07,00,9.80
2011,08,20,07,01,9.80
2011,08,20,07,02,9.80
2011,08,20,07,03,9.90
2011,08,20,07,04,9.90
2011,08,20,07,05,9.90
2011,08,20,07,06,9.90
2011,08,20,07,07,10.00
2011,08,20,07,08,10.10
2011,08,20,07,09,10.10
2011,08,20,07,10,10.10
2011,08,20,07,11,10.10
2011,08,20,07,12,10.20
2011,08,20,07,13,10.20
2011,08,20,07,14,10.30
2011,08,20,07,15,10.40
2011,08,20,07,16,10.40
2011,08,20,07,17,10.40
2011,08,20,07,18,10.50
2011,08,20,07,19,10.60
2011,08,20,07,20,10.60
2011,08,20,07,21,10.60
2011,08,20,07,22,10.70
2011,08,20,07,23,10.70
2011,08,20,07,24,10.80
2011,08,20,07,25,10.80
2011,08,20,07,26,10.90
2011,08,20,07,27,10.90
2011,08,20,07,28,11.00
2011,08,20,07,29,11.10
2011,08,20,07,30,11.20
2011,08,20,07,31,11.30
2011,08,20,07,32,11.30
2011,08,20,07,33,11.40
2011,08,20,07,34,11.40
2011,08,20,07,35,11.40
2011,08,20,07,36,11.50
2011,08,20,07,37,11.60
2011,08,20,07,38,11.60
2011,08,20,07,39,11.60
2011,08,20,07,40,11.70
2011,08,20,07,41,11.70
2011,08,20,07,42,11.80
2011,08,20,07,43,11.80
2011,08,20,07,44,11.80
2011,08,20,07,45,11.90
2011,08,20,07,46,12.00
2011,08,20,07,47,12.10
2011,08,20,07,48,12.20
2011,08,20,07,49,12.30
2011,08,20,07,50,12.50
2011,08,20,07,51,12.60
2011,08,20,07,52,12.70
2011,08,20,07,53,12.80
2011,08,20,07,54,12.90
2011,08,20,07,55,13.00
2011,08,20,07,56,13.10
2011,08,20,07,57,13.20
2011,08,20,07,58,13.30
2011,08,20,07,59,13.40
2011,08,20,08,00,13.50
2011,08,20,08,01,13.60
2011,08,20,08,02,13.60
2011,08,20,08,03,13.70
2011,08,20,08,04,13.80
2011,08,20,08,05,13.90
2011,08,20,08,06,14.00
2011,08,20,08,07,14.10
2011,08,20,08,08,14.20
2011,08,20,08,09,14.30
2011,08,20,08,10,14.50
2011,08,20,08,11,14.60
2011,08,20,08,12,14.60
2011,08,20,08,13,14.70
2011,08,20,08,14,14.80
2011,08,20,08,15,14.90
2011,08,20,08,16,15.00
2011,08,20,08,17,15.10
2011,08,20,08,18,15.20
2011,08,20,08,19,15.30
2011,08,20,08,20,15.50
2011,08,20,08,21,15.70
2011,08,20,08,22,15.80
2011,08,20,08,23,15.90
2011,08,20,08,24,16.00
2011,08,20,08,25,16.10
2011,08,20,08,26,16.20
2011,08,20,08,27,16.30
2011,08,20,08,28,16.30
2011,08,20,08,29,16.40
2011,08,20,08,30,16.40
2011,08,20,08,31,16.40
2011,08,20,08,32,16.50
2011,08,20,08,33,16.60
2011,08,20,08,34,16.70
2011,08,20,08,35,16.70
2011,08,20,08,36,16.80
2011,08,20,08,37,16.90
2011,08,20,08,38,17.00
2011,08,20,08,39,17.20
2011,08,20,08,40,17.40
2011,08,20,08,41,17.60
2011,08,20,08,42,17.70
2011,08,20,08,43,17.90
2011,08,20,08,44,18.00
2011,08,20,08,45,18.10
2011,08,20,08,46,18.20
2011,08,20,08,47,18.30
2011,08,20,08,48,18.40
2011,08,20,08,49,18.60
2011,08,20,08,50,18.70
2011,08,20,08,51,18.80
2011,08,20,08,52,18.90
2011,08,20,08,53,19.00
2011,08,20,08,54,19.10
2011,08,20,08,55,19.20
2011,08,20,08,56,19.30
2011,08,20,08,57,19.40
2011,08,20,08,58,19.50
2011,08,20,08,59,19.60
2011,08,20,09,00,19.70
2011,08,20,09,01,19.70
2011,08,20,09,02,19.80
2011,08,20,09,03,19.90
2011,08,20,09,04,19.90
2011,08,20,09,05,20.00
2011,08,20,09,06,20.10
2011,08,20,09,07,20.20
2011,08,20,09,08,20.20
2011,08,20,09,09,20.40
2011,08,20,09,10,20.50
2011,08,20,09,11,20.50
2011,08,20,09,12,20.60
2011,08,20,09,13,20.70
2011,08,20,09,14,20.80
2011,08,20,09,15,20.90
2011,08,20,09,16,20.90
2011,08,20,09,17,21.00
2011,08,20,09,18,21.00
2011,08,20,09,19,21.10
2011,08,20,09,20,21.10
2011,08,20,09,21,21.00
2011,08,20,09,22,21.00
2011,08,20,09,23,21.00
2011,08,20,09,24,21.00
2011,08,20,09,25,21.00
2011,08,20,09,26,21.00
2011,08,20,09,27,21.00
2011,08,20,09,28,21.00
2011,08,20,09,29,21.00
2011,08,20,09,30,21.00
2011,08,20,09,31,21.00
2011,08,20,09,32,21.10
2011,08,20,09,33,21.10
2011,08,20,09,34,21.10
2011,08,20,09,35,21.20
2011,08,20,09,36,21.30
2011,08,20,09,37,21.30
2011,08,20,09,38,21.30
2011,08,20,09,39,21.30
2011,08,20,09,40,21.30
2011,08,20,09,41,21.30
2011,08,20,09,42,21.30
2011,08,20,09,43,21.30
2011,08,20,09,44,21.30
2011,08,20,09,45,21.30
2011,08,20,09,46,21.30
2011,08,20,09,47,21.40
2011,08,20,09,48,21.40
2011,08,20,09,49,21.50
2011,08,20,09,50,21.60
2011,08,20,09,51,21.60
2011,08,20,09,52,21.60
2011,08,20,09,53,21.60
2011,08,20,09,54,21.60
2011,08,20,09,55,21.60
2011,08,20,09,56,21.60
2011,08,20,09,57,21.60
2011,08,20,09,58,21.70
2011,08,20,09,59,21.80
2011,08,20,10,00,21.90
2011,08,20,10,01,22.00
2011,08,20,10,02,22.00
2011,08,20,10,03,22.10
2011,08,20,10,04,22.20
2011,08,20,10,05,22.20
2011,08,20,10,06,22.20
2011,08,20,10,07,22.30
2011,08,20,10,08,22.30
2011,08,20,10,09,22.30
2011,08,20,10,10,22.30
2011,08,20,10,11,22.20
2011,08,20,10,12,22.20
2011,08,20,10,13,22.20
2011,08,20,10,14,22.00
2011,08,20,10,15,21.70
2011,08,20,10,16,21.40
2011,08,20,10,17,21.20
2011,08,20,10,18,20.90
2011,08,20,10,19,20.70
2011,08,20,10,20,20.50
2011,08,20,10,21,20.40
2011,08,20,10,22,20.40
2011,08,20,10,23,20.30
2011,08,20,10,24,20.40
2011,08,20,10,25,20.40
2011,08,20,10,26,20.40
2011,08,20,10,27,20.30
2011,08,20,10,28,20.30
2011,08,20,10,29,20.30
2011,08,20,10,30,20.40
2011,08,20,10,31,20.50
2011,08,20,10,32,20.50
2011,08,20,10,33,20.60
2011,08,20,10,34,20.60
2011,08,20,10,35,20.70
2011,08,20,10,36,20.80
2011,08,20,10,37,20.90
2011,08,20,10,38,21.00
2011,08,20,10,39,21.10
2011,08,20,10,40,21.10
2011,08,20,10,41,21.20
2011,08,20,10,42,21.20
2011,08,20,10,43,21.10
2011,08,20,10,44,21.00
2011,08,20,10,45,20.90
2011,08,20,10,46,20.90
2011,08,20,10,47,21.00
2011,08,20,10,48,21.00
2011,08,20,10,49,21.10
2011,08,20,10,50,21.20
2011,08,20,10,51,21.10
2011,08,20,10,52,21.10
2011,08,20,10,53,21.10
2011,08,20,10,54,21.10
2011,08,20,10,55,21.00
2011,08,20,10,56,20.90
2011,08,20,10,57,20.90
2011,08,20,10,58,20.90
2011,08,20,10,59,21.00
2011,08,20,11,00,21.10
2011,08,20,11,01,21.20
2011,08,20,11,02,21.30
2011,08,20,11,03,21.40
2011,08,20,11,04,21.50
2011,08,20,11,05,21.60
2011,08,20,11,06,21.60
2011,08,20,11,07,21.80
2011,08,20,11,08,21.90
2011,08,20,11,09,22.00
2011,08,20,11,10,22.10
2011,08,20,11,11,22.20
2011,08,20,11,12,22.30
2011,08,20,11,13,22.30
2011,08,20,11,14,22.40
2011,08,20,11,15,22.50
2011,08,20,11,16,22.60
2011,08,20,11,17,22.80
2011,08,20,11,18,23.00
2011,08,20,11,19,23.30
2011,08,20,11,20,23.50
2011,08,20,11,21,23.70
2011,08,20,11,22,23.90
2011,08,20,11,23,24.10
2011,08,20,11,24,24.20
2011,08,20,11,25,24.30
2011,08,20,11,26,24.40
2011,08,20,11,27,24.40
2011,08,20,11,28,24.50
2011,08,20,11,29,24.50
2011,08,20,11,30,24.60
2011,08,20,11,31,24.60
2011,08,20,11,32,24.70
2011,08,20,11,33,24.70
2011,08,20,11,34,24.60
2011,08,20,11,35,24.50
2011,08,20,11,36,24.50
2011,08,20,11,37,24.50
2011,08,20,11,38,24.50
2011,08,20,11,39,24.40
2011,08,20,11,40,24.40
2011,08,20,11,41,24.50
2011,08,20,11,42,24.60
2011,08,20,11,43,24.60
2011,08,20,11,44,24.70
2011,08,20,11,45,24.80
2011,08,20,11,46,24.80
2011,08,20,11,47,24.90
2011,08,20,11,48,24.90
2011,08,20,11,49,24.80
2011,08,20,11,50,24.80
2011,08,20,11,51,24.90
2011,08,20,11,52,25.00
2011,08,20,11,53,25.10
2011,08,20,11,54,25.20
2011,08,20,11,55,25.30
2011,08,20,11,56,25.40
2011,08,20,11,57,25.30
2011,08,20,11,58,25.20
2011,08,20,11,59,25.20
2011,08,20,12,00,25.20
2011,08,20,12,01,25.10
2011,08,20,12,02,25.10
2011,08,20,12,03,25.10
2011,08,20,12,04,25.10
2011,08,20,12,05,25.00
2011,08,20,12,06,25.00
2011,08,20,12,07,25.00
2011,08,20,12,08,25.00
2011,08,20,12,09,24.90
2011,08,20,12,10,24.90
2011,08,20,12,11,24.90
2011,08,20,12,12,24.90
2011,08,20,12,13,24.90
2011,08,20,12,14,25.00
2011,08,20,12,15,25.10
2011,08,20,12,16,25.10
2011,08,20,12,17,25.20
2011,08,20,12,18,25.30
2011,08,20,12,19,25.40
2011,08,20,12,20,25.60
2011,08,20,12,21,25.80
2011,08,20,12,22,25.80
2011,08,20,12,23,25.70
2011,08,20,12,24,25.70
2011,08,20,12,25,25.80
2011,08,20,12,26,25.80
2011,08,20,12,27,25.90
2011,08,20,12,28,26.00
2011,08,20,12,29,26.10
2011,08,20,12,30,26.10
2011,08,20,12,31,26.20
2011,08,20,12,32,25.90
2011,08,20,12,33,25.70
2011,08,20,12,34,25.60
2011,08,20,12,35,25.50
2011,08,20,12,36,25.50
2011,08,20,12,37,25.60
2011,08,20,12,38,25.70
2011,08,20,12,39,25.70
2011,08,20,12,40,25.70
2011,08,20,12,41,25.70
2011,08,20,12,42,25.70
2011,08,20,12,43,25.70
2011,08,20,12,44,25.80
2011,08,20,12,45,25.90
2011,08,20,12,46,25.90
2011,08,20,12,47,26.00
2011,08,20,12,48,26.00
2011,08,20,12,49,26.00
2011,08,20,12,50,26.00
2011,08,20,12,51,25.80
2011,08,20,12,52,25.60
2011,08,20,12,53,25.50
2011,08,20,12,54,25.40
2011,08,20,12,55,25.20
2011,08,20,12,56,25.00
2011,08,20,12,57,24.90
2011,08,20,12,58,24.90
2011,08,20,12,59,24.80
2011,08,20,13,00,24.80
2011,08,20,13,01,24.90
2011,08,20,13,02,24.90
2011,08,20,13,03,25.00
2011,08,20,13,04,25.10
2011,08,20,13,05,25.10
2011,08,20,13,06,25.20
2011,08,20,13,07,25.20
2011,08,20,13,08,25.20
2011,08,20,13,09,25.30
2011,08,20,13,10,25.30
2011,08,20,13,11,25.20
2011,08,20,13,12,25.00
2011,08,20,13,13,24.90
2011,08,20,13,14,24.90
2011,08,20,13,15,24.90
2011,08,20,13,16,24.90
2011,08,20,13,17,24.90
2011,08,20,13,18,24.90
2011,08,20,13,19,24.80
2011,08,20,13,20,24.80
2011,08,20,13,21,24.60
2011,08,20,13,22,24.60
2011,08,20,13,23,24.50
2011,08,20,13,24,24.30
2011,08,20,13,25,24.10
2011,08,20,13,26,23.90
2011,08,20,13,27,23.70
2011,08,20,13,28,23.70
2011,08,20,13,29,23.50
2011,08,20,13,30,23.40
2011,08,20,13,31,23.30
2011,08,20,13,32,23.30
2011,08,20,13,33,23.20
2011,08,20,13,34,23.10
2011,08,20,13,35,23.10
2011,08,20,13,36,23.10
2011,08,20,13,37,23.10
2011,08,20,13,38,23.20
2011,08,20,13,39,23.30
2011,08,20,13,40,23.20
2011,08,20,13,41,23.20
2011,08,20,13,42,23.30
2011,08,20,13,43,23.30
2011,08,20,13,44,23.40
2011,08,20,13,45,23.40
2011,08,20,13,46,23.30
2011,08,20,13,47,23.40
2011,08,20,13,48,23.30
2011,08,20,13,49,23.10
2011,08,20,13,50,22.90
2011,08,20,13,51,22.70
2011,08,20,13,52,22.40
2011,08,20,13,53,22.20
2011,08,20,13,54,22.10
2011,08,20,13,55,21.90
2011,08,20,13,56,21.80
2011,08,20,13,57,21.60
2011,08,20,13,58,21.60
2011,08,20,13,59,21.60
2011,08,20,14,00,21.60
2011,08,20,14,01,21.80
2011,08,20,14,02,21.80
2011,08,20,14,03,21.80
2011,08,20,14,04,21.60
2011,08,20,14,05,21.40
2011,08,20,14,06,21.30
2011,08,20,14,07,21.20
2011,08,20,14,08,21.20
2011,08,20,14,09,21.10
2011,08,20,14,10,21.00
2011,08,20,14,11,20.90
2011,08,20,14,12,20.90
2011,08,20,14,13,20.70
2011,08,20,14,14,20.60
2011,08,20,14,15,20.60
2011,08,20,14,16,20.60
2011,08,20,14,17,20.70
2011,08,20,14,18,20.80
2011,08,20,14,19,21.00
2011,08,20,14,20,21.20
2011,08,20,14,21,21.50
2011,08,20,14,22,21.70
2011,08,20,14,23,21.90
2011,08,20,14,24,21.80
2011,08,20,14,25,21.70
2011,08,20,14,26,21.70
2011,08,20,14,27,21.60
2011,08,20,14,28,21.40
2011,08,20,14,29,21.40
2011,08,20,14,30,21.40
2011,08,20,14,31,21.40
2011,08,20,14,32,21.40
2011,08,20,14,33,21.40
2011,08,20,14,34,21.40
2011,08,20,14,35,21.30
2011,08,20,14,36,21.30
2011,08,20,14,37,21.30
2011,08,20,14,38,21.30
2011,08,20,14,39,21.30
2011,08,20,14,40,21.30
2011,08,20,14,41,21.40
2011,08,20,14,42,21.60
2011,08,20,14,43,21.50
2011,08,20,14,44,21.30
2011,08,20,14,45,21.30
2011,08,20,14,46,21.30
2011,08,20,14,47,21.30
2011,08,20,14,48,21.30
2011,08,20,14,49,21.30
2011,08,20,14,50,21.30
2011,08,20,14,51,21.40
2011,08,20,14,52,21.50
2011,08,20,14,53,21.60
2011,08,20,14,54,21.70
2011,08,20,14,55,21.70
2011,08,20,14,56,21.70
2011,08,20,14,57,21.80
2011,08,20,14,58,21.90
2011,08,20,14,59,21.90
2011,08,20,15,00,22.00
2011,08,20,15,01,22.20
2011,08,20,15,02,22.30
2011,08,20,15,03,22.30
2011,08,20,15,04,22.30
2011,08,20,15,05,22.30
2011,08,20,15,06,22.30
2011,08,20,15,07,22.20
2011,08,20,15,08,22.30
2011,08,20,15,09,22.30
2011,08,20,15,10,22.40
2011,08,20,15,11,22.60
2011,08,20,15,12,22.70
2011,08,20,15,13,22.70
2011,08,20,15,14,22.80
2011,08,20,15,15,22.80
2011,08,20,15,16,22.80
2011,08,20,15,17,22.80
2011,08,20,15,18,22.90
2011,08,20,15,19,23.00
2011,08,20,15,20,23.10
2011,08,20,15,21,23.10
2011,08,20,15,22,23.20
2011,08,20,15,23,23.30
2011,08,20,15,24,23.40
2011,08,20,15,25,23.60
2011,08,20,15,26,23.80
2011,08,20,15,27,24.00
2011,08,20,15,28,24.10
2011,08,20,15,29,24.20
2011,08,20,15,30,24.40
2011,08,20,15,31,24.50
2011,08,20,15,32,24.60
2011,08,20,15,33,24.80
2011,08,20,15,34,24.90
2011,08,20,15,35,25.00
2011,08,20,15,36,25.00
2011,08,20,15,37,25.00
2011,08,20,15,38,24.90
2011,08,20,15,39,24.90
2011,08,20,15,40,24.80
2011,08,20,15,41,24.70
2011,08,20,15,42,24.60
2011,08,20,15,43,24.60
2011,08,20,15,44,24.70
2011,08,20,15,45,24.70
2011,08,20,15,46,24.50
2011,08,20,15,47,24.40
2011,08,20,15,48,24.30
2011,08,20,15,49,24.20
2011,08,20,15,50,24.10
2011,08,20,15,51,24.10
2011,08,20,15,52,24.10
2011,08,20,15,53,24.20
2011,08,20,15,54,24.20
2011,08,20,15,55,24.10
2011,08,20,15,56,24.00
2011,08,20,15,57,23.90
2011,08,20,15,58,23.80
2011,08,20,15,59,23.80
2011,08,20,16,00,23.70
2011,08,20,16,01,23.60
2011,08,20,16,02,23.40
2011,08,20,16,03,23.40
2011,08,20,16,04,23.40
2011,08,20,16,05,23.40
2011,08,20,16,06,23.40
2011,08,20,16,07,23.40
2011,08,20,16,08,23.40
2011,08,20,16,09,23.50
2011,08,20,16,10,23.60
2011,08,20,16,11,23.60
2011,08,20,16,12,23.70
2011,08,20,16,13,23.70
2011,08,20,16,14,23.70
2011,08,20,16,15,23.70
2011,08,20,16,16,23.60
2011,08,20,16,17,23.50
2011,08,20,16,18,23.40
2011,08,20,16,19,23.40
2011,08,20,16,20,23.30
2011,08,20,16,21,23.30
2011,08,20,16,22,23.30
2011,08,20,16,23,23.40
2011,08,20,16,24,23.60
2011,08,20,16,25,23.70
2011,08,20,16,26,23.70
2011,08,20,16,27,23.80
2011,08,20,16,28,23.90
2011,08,20,16,29,24.10
2011,08,20,16,30,24.10
2011,08,20,16,31,24.10
2011,08,20,16,32,24.00
2011,08,20,16,33,23.80
2011,08,20,16,34,23.60
2011,08,20,16,35,23.40
2011,08,20,16,36,23.30
2011,08,20,16,37,23.20
2011,08,20,16,38,23.10
2011,08,20,16,39,23.10
2011,08,20,16,40,23.00
2011,08,20,16,41,22.90
2011,08,20,16,42,23.10
2011,08,20,16,43,23.10
2011,08,20,16,44,23.10
2011,08,20,16,45,23.20
2011,08,20,16,46,23.30
2011,08,20,16,47,23.30
2011,08,20,16,48,23.40
2011,08,20,16,49,23.50
2011,08,20,16,50,23.60
2011,08,20,16,51,23.70
2011,08,20,16,52,23.70
2011,08,20,16,53,23.80
2011,08,20,16,54,23.80
2011,08,20,16,55,23.90
2011,08,20,16,56,24.10
2011,08,20,16,57,24.10
2011,08,20,16,58,24.10
2011,08,20,16,59,24.10
2011,08,20,17,00,24.00
2011,08,20,17,01,24.00
2011,08,20,17,02,24.10
2011,08,20,17,03,24.10
2011,08,20,17,04,24.10
2011,08,20,17,05,24.10
2011,08,20,17,06,24.20
2011,08,20,17,07,24.40
2011,08,20,17,08,24.40
2011,08,20,17,09,24.40
2011,08,20,17,10,24.40
2011,08,20,17,11,24.40
2011,08,20,17,12,24.40
2011,08,20,17,13,24.40
2011,08,20,17,14,24.40
2011,08,20,17,15,24.40
2011,08,20,17,16,24.40
2011,08,20,17,17,24.40
2011,08,20,17,18,24.30
2011,08,20,17,19,24.30
2011,08,20,17,20,24.30
2011,08,20,17,21,24.40
2011,08,20,17,22,24.40
2011,08,20,17,23,24.50
2011,08,20,17,24,24.60
2011,08,20,17,25,24.70
2011,08,20,17,26,24.70